Time,TemperatureF,DewpointF,PressureIn,WindDirection,WindDirectionDegrees,WindSpeedMPH,WindSpeedGustMPH,Humidity,HourlyPrecipIn,Conditions,Clouds,dailyrainin,SoftwareType,DateUTC
2013-10-20 00:14:00,58.8,56.0,29.80,West,270,3.0,5.0,91,0.00,,,0.00,weatherlink.com 1.10,2013-10-20 04:14:00,
2013-10-20 00:29:00,58.4,56.0,29.80,WNW,292,4.0,9.0,90,0.01,,,0.01,weatherlink.com 1.10,2013-10-20 04:29:00,
2013-10-20 00:44:00,58.0,55.0,29.80,West,280,3.0,6.0,88,0.01,,,0.01,weatherlink.com 1.10,2013-10-20 04:44:00,
2013-10-20 00:59:00,57.4,52.0,29.80,NW,320,4.0,12.0,83,0.01,,,0.01,weatherlink.com 1.10,2013-10-20 04:59:00,
2013-10-20 01:14:00,57.3,51.0,29.80,WNW,284,4.0,9.0,80,0.01,,,0.01,weatherlink.com 1.10,2013-10-20 05:14:00,
2013-10-20 01:29:00,56.9,51.0,29.80,NW,306,4.0,9.0,81,0.00,,,0.01,weatherlink.com 1.10,2013-10-20 05:29:00,
2013-10-20 01:44:00,56.6,51.0,29.81,WSW,252,3.0,8.0,81,0.00,,,0.01,weatherlink.com 1.10,2013-10-20 05:44:00,
2013-10-20 01:59:00,56.0,50.0,29.81,West,260,2.0,10.0,80,0.00,,,0.01,weatherlink.com 1.10,2013-10-20 05:59:00,
2013-10-20 02:14:00,55.5,49.0,29.81,WNW,285,2.0,8.0,80,0.00,,,0.01,weatherlink.com 1.10,2013-10-20 06:14:00,
2013-10-20 02:29:00,55.2,49.0,29.82,West,263,10.0,10.0,80,0.00,,,0.01,weatherlink.com 1.10,2013-10-20 06:29:00,
2013-10-20 02:44:00,54.6,49.0,29.82,West,267,2.0,7.0,81,0.00,,,0.01,weatherlink.com 1.10,2013-10-20 06:44:00,
2013-10-20 02:59:00,54.1,48.0,29.82,West,262,3.0,9.0,81,0.00,,,0.01,weatherlink.com 1.10,2013-10-20 06:59:00,
2013-10-20 03:14:00,53.6,48.0,29.83,West,271,1.0,8.0,82,0.00,,,0.01,weatherlink.com 1.10,2013-10-20 07:14:00,
2013-10-20 03:29:00,53.3,46.0,29.83,WNW,300,5.0,15.0,75,0.00,,,0.01,weatherlink.com 1.10,2013-10-20 07:29:00,
2013-10-20 03:44:00,52.9,44.0,29.84,NNW,329,6.0,11.0,71,0.00,,,0.01,weatherlink.com 1.10,2013-10-20 07:44:00,
2013-10-20 04:00:00,52.5,43.0,29.84,NNW,333,2.0,17.0,71,0.00,,,0.01,weatherlink.com 1.10,2013-10-20 08:00:00,
2013-10-20 04:30:00,51.2,43.0,29.86,NW,314,3.0,10.0,73,0.00,,,0.01,weatherlink.com 1.10,2013-10-20 08:30:00,
2013-10-20 04:45:00,50.4,43.0,29.86,West,272,4.0,9.0,75,0.00,,,0.01,weatherlink.com 1.10,2013-10-20 08:45:00,
2013-10-20 05:00:00,49.8,42.0,29.87,West,278,4.0,8.0,74,0.00,,,0.01,weatherlink.com 1.10,2013-10-20 09:00:00,
2013-10-20 05:15:00,49.4,41.0,29.87,WNW,285,1.0,6.0,74,0.00,,,0.01,weatherlink.com 1.10,2013-10-20 09:15:00,
2013-10-20 05:30:00,48.5,42.0,29.88,WNW,288,2.0,5.0,77,0.00,,,0.01,weatherlink.com 1.10,2013-10-20 09:30:00,
2013-10-20 05:45:00,47.5,42.0,29.89,NW,315,2.0,6.0,80,0.00,,,0.01,weatherlink.com 1.10,2013-10-20 09:45:00,
2013-10-20 06:00:00,47.2,42.0,29.90,West,272,0.0,5.0,81,0.00,,,0.01,weatherlink.com 1.10,2013-10-20 10:00:00,
2013-10-20 06:15:00,47.0,41.0,29.90,West,265,2.0,5.0,80,0.00,,,0.01,weatherlink.com 1.10,2013-10-20 10:15:00,
2013-10-20 06:30:00,47.1,41.0,29.91,WSW,253,2.0,7.0,78,0.00,,,0.01,weatherlink.com 1.10,2013-10-20 10:30:00,
2013-10-20 06:45:00,46.7,40.0,29.91,WNW,295,3.0,6.0,78,0.00,,,0.01,weatherlink.com 1.10,2013-10-20 10:45:00,
2013-10-20 07:00:00,46.3,39.0,29.92,WNW,292,1.0,6.0,77,0.00,,,0.01,weatherlink.com 1.10,2013-10-20 11:00:00,
2013-10-20 07:15:00,45.9,39.0,29.92,WNW,302,2.0,4.0,78,0.00,,,0.01,weatherlink.com 1.10,2013-10-20 11:15:00,
2013-10-20 07:30:00,45.7,40.0,29.93,WNW,297,1.0,3.0,79,0.00,,,0.01,weatherlink.com 1.10,2013-10-20 11:30:00,
2013-10-20 07:45:00,45.9,40.0,29.94,WNW,289,0.0,3.0,79,0.00,,,0.01,weatherlink.com 1.10,2013-10-20 11:45:00,
2013-10-20 08:00:00,46.4,40.0,29.94,NW,309,1.0,2.0,79,0.00,,,0.01,weatherlink.com 1.10,2013-10-20 12:00:00,
2013-10-20 08:15:00,47.3,40.0,29.95,WNW,283,2.0,4.0,77,0.00,,,0.01,weatherlink.com 1.10,2013-10-20 12:15:00,
2013-10-20 08:30:00,48.2,41.0,29.97,West,269,1.0,5.0,76,0.00,,,0.01,weatherlink.com 1.10,2013-10-20 12:30:00,
2013-10-20 08:45:00,49.3,41.0,29.97,WNW,282,3.0,6.0,74,0.00,,,0.01,weatherlink.com 1.10,2013-10-20 12:45:00,
2013-10-20 09:00:00,50.4,41.0,29.97,West,273,3.0,7.0,70,0.00,,,0.01,weatherlink.com 1.10,2013-10-20 13:00:00,
2013-10-20 09:15:00,51.2,41.0,29.98,NW,309,3.0,11.0,69,0.00,,,0.01,weatherlink.com 1.10,2013-10-20 13:15:00,
2013-10-20 09:30:00,51.9,41.0,29.98,NW,316,3.0,13.0,66,0.00,,,0.01,weatherlink.com 1.10,2013-10-20 13:30:00,
2013-10-20 09:45:00,52.5,40.0,29.98,NW,309,5.0,12.0,63,0.00,,,0.01,weatherlink.com 1.10,2013-10-20 13:45:00,
2013-10-20 10:01:00,53.5,39.0,29.99,North,353,8.0,16.0,59,0.00,,,0.01,weatherlink.com 1.10,2013-10-20 14:01:00,
2013-10-20 10:16:00,54.3,40.0,29.99,NW,307,7.0,11.0,58,0.00,,,0.01,weatherlink.com 1.10,2013-10-20 14:16:00,
2013-10-20 10:31:00,54.7,39.0,29.99,WNW,295,5.0,14.0,56,0.00,,,0.01,weatherlink.com 1.10,2013-10-20 14:31:00,
2013-10-20 10:46:00,55.5,40.0,29.99,NW,314,4.0,11.0,56,0.00,,,0.01,weatherlink.com 1.10,2013-10-20 14:46:00,
2013-10-20 11:01:00,55.8,39.0,30.00,NW,323,7.0,13.0,53,0.00,,,0.01,weatherlink.com 1.10,2013-10-20 15:01:00,
2013-10-20 11:16:00,56.6,38.0,30.00,WNW,290,6.0,12.0,51,0.00,,,0.01,weatherlink.com 1.10,2013-10-20 15:16:00,
2013-10-20 11:31:00,57.4,38.0,29.99,WNW,292,11.0,12.0,49,0.00,,,0.01,weatherlink.com 1.10,2013-10-20 15:31:00,
2013-10-20 11:46:00,57.3,39.0,29.99,NNW,347,6.0,13.0,50,0.00,,,0.01,weatherlink.com 1.10,2013-10-20 15:46:00,
2013-10-20 12:02:00,58.6,39.0,29.99,WNW,293,3.0,13.0,48,0.00,,,0.01,weatherlink.com 1.10,2013-10-20 16:02:00,
2013-10-20 12:16:00,58.9,39.0,29.99,SW,222,5.0,13.0,48,0.00,,,0.01,weatherlink.com 1.10,2013-10-20 16:16:00,
2013-10-20 12:31:00,60.2,39.0,29.99,WNW,299,3.0,12.0,45,0.00,,,0.01,weatherlink.com 1.10,2013-10-20 16:31:00,
2013-10-20 12:46:00,59.8,38.0,29.98,South,186,2.0,9.0,45,0.00,,,0.01,weatherlink.com 1.10,2013-10-20 16:46:00,
2013-10-20 13:01:00,60.4,38.0,29.98,West,280,4.0,13.0,44,0.00,,,0.01,weatherlink.com 1.10,2013-10-20 17:01:00,
2013-10-20 13:16:00,60.7,38.0,29.98,NW,321,8.0,13.0,44,0.00,,,0.01,weatherlink.com 1.10,2013-10-20 17:16:00,
2013-10-20 13:31:00,60.9,38.0,29.98,West,272,10.0,12.0,43,0.00,,,0.01,weatherlink.com 1.10,2013-10-20 17:31:00,
2013-10-20 13:46:00,61.0,38.0,29.97,West,276,5.0,15.0,43,0.00,,,0.01,weatherlink.com 1.10,2013-10-20 17:46:00,
2013-10-20 14:01:00,61.6,39.0,29.97,NNW,344,2.0,12.0,43,0.00,,,0.01,weatherlink.com 1.10,2013-10-20 18:01:00,
2013-10-20 14:16:00,62.0,38.0,29.97,NW,314,6.0,12.0,41,0.00,,,0.01,weatherlink.com 1.10,2013-10-20 18:16:00,
2013-10-20 14:31:00,61.6,38.0,29.97,NNW,331,6.0,13.0,42,0.00,,,0.01,weatherlink.com 1.10,2013-10-20 18:31:00,
2013-10-20 14:46:00,61.8,37.0,29.97,West,276,8.0,10.0,40,0.00,,,0.01,weatherlink.com 1.10,2013-10-20 18:46:00,
2013-10-20 15:01:00,61.8,37.0,29.98,WNW,295,4.0,11.0,40,0.00,,,0.01,weatherlink.com 1.10,2013-10-20 19:01:00,
2013-10-20 15:16:00,61.8,38.0,29.97,West,279,3.0,10.0,42,0.00,,,0.01,weatherlink.com 1.10,2013-10-20 19:16:00,
2013-10-20 15:31:00,62.0,37.0,29.97,North,356,7.0,10.0,39,0.00,,,0.01,weatherlink.com 1.10,2013-10-20 19:31:00,
2013-10-20 15:46:00,61.8,36.0,29.97,West,265,3.0,12.0,38,0.00,,,0.01,weatherlink.com 1.10,2013-10-20 19:46:00,
2013-10-20 16:01:00,62.1,35.0,29.97,WNW,302,3.0,10.0,37,0.00,,,0.01,weatherlink.com 1.10,2013-10-20 20:01:00,
2013-10-20 16:16:00,62.2,36.0,29.98,NW,311,7.0,8.0,38,0.00,,,0.01,weatherlink.com 1.10,2013-10-20 20:16:00,
2013-10-20 16:31:00,62.4,38.0,29.98,NW,322,4.0,6.0,40,0.00,,,0.01,weatherlink.com 1.10,2013-10-20 20:31:00,
2013-10-20 16:46:00,62.3,37.0,29.98,WSW,249,7.0,7.0,39,0.00,,,0.01,weatherlink.com 1.10,2013-10-20 20:46:00,
2013-10-20 17:01:00,61.7,37.0,29.98,West,271,4.0,6.0,40,0.00,,,0.01,weatherlink.com 1.10,2013-10-20 21:01:00,
2013-10-20 17:16:00,61.4,38.0,29.99,WNW,290,3.0,5.0,42,0.00,,,0.01,weatherlink.com 1.10,2013-10-20 21:16:00,
2013-10-20 17:31:00,60.5,39.0,29.99,WNW,287,2.0,4.0,46,0.00,,,0.01,weatherlink.com 1.10,2013-10-20 21:31:00,
2013-10-20 17:46:00,59.6,40.0,29.99,WNW,288,1.0,3.0,48,0.00,,,0.01,weatherlink.com 1.10,2013-10-20 21:46:00,
2013-10-20 18:01:00,56.7,41.0,30.00,West,274,0.0,2.0,56,0.00,,,0.01,weatherlink.com 1.10,2013-10-20 22:01:00,
2013-10-20 18:16:00,53.8,42.0,30.00,WNW,284,0.0,1.0,64,0.00,,,0.01,weatherlink.com 1.10,2013-10-20 22:16:00,
2013-10-20 18:31:00,51.3,43.0,30.01,WNW,284,0.0,1.0,72,0.00,,,0.01,weatherlink.com 1.10,2013-10-20 22:31:00,
2013-10-20 18:46:00,48.7,43.0,30.02,WNW,284,0.0,1.0,81,0.00,,,0.01,weatherlink.com 1.10,2013-10-20 22:46:00,
2013-10-20 19:01:00,47.2,42.0,30.02,WNW,284,0.0,1.0,82,0.00,,,0.01,weatherlink.com 1.10,2013-10-20 23:01:00,
2013-10-20 19:16:00,45.5,41.0,30.03,WNW,284,0.0,0.0,85,0.00,,,0.01,weatherlink.com 1.10,2013-10-20 23:16:00,
2013-10-20 19:31:00,44.3,41.0,30.04,WNW,284,0.0,0.0,88,0.00,,,0.01,weatherlink.com 1.10,2013-10-20 23:31:00,
2013-10-20 19:46:00,43.6,41.0,30.04,WNW,284,0.0,0.0,90,0.00,,,0.01,weatherlink.com 1.10,2013-10-20 23:46:00,
2013-10-20 20:01:00,42.8,40.0,30.05,WNW,284,0.0,0.0,91,0.00,,,0.01,weatherlink.com 1.10,2013-10-21 00:01:00,
2013-10-20 20:17:00,42.1,40.0,30.05,WNW,284,0.0,0.0,91,0.00,,,0.01,weatherlink.com 1.10,2013-10-21 00:17:00,
2013-10-20 20:32:00,41.5,39.0,30.05,WNW,284,0.0,0.0,92,0.00,,,0.01,weatherlink.com 1.10,2013-10-21 00:32:00,
2013-10-20 20:47:00,40.4,38.0,30.05,WNW,284,0.0,0.0,92,0.00,,,0.01,weatherlink.com 1.10,2013-10-21 00:47:00,
2013-10-20 21:02:00,40.0,38.0,30.06,WNW,284,0.0,0.0,92,0.00,,,0.01,weatherlink.com 1.10,2013-10-21 01:02:00,
2013-10-20 21:17:00,39.3,37.0,30.06,WNW,284,0.0,0.0,92,0.00,,,0.01,weatherlink.com 1.10,2013-10-21 01:17:00,
2013-10-20 21:32:00,38.9,37.0,30.07,WNW,284,0.0,0.0,92,0.00,,,0.01,weatherlink.com 1.10,2013-10-21 01:32:00,
2013-10-20 21:47:00,38.2,36.0,30.07,WNW,284,0.0,0.0,92,0.00,,,0.01,weatherlink.com 1.10,2013-10-21 01:47:00,
2013-10-20 22:02:00,37.7,36.0,30.07,WNW,284,0.0,0.0,92,0.00,,,0.01,weatherlink.com 1.10,2013-10-21 02:02:00,
2013-10-20 22:17:00,37.0,35.0,30.07,WNW,284,0.0,0.0,93,0.00,,,0.01,weatherlink.com 1.10,2013-10-21 02:17:00,
2013-10-20 22:32:00,36.6,35.0,30.08,WNW,284,0.0,0.0,93,0.00,,,0.01,weatherlink.com 1.10,2013-10-21 02:32:00,
2013-10-20 22:47:00,36.4,35.0,30.07,WNW,284,0.0,0.0,93,0.00,,,0.01,weatherlink.com 1.10,2013-10-21 02:47:00,
2013-10-20 23:02:00,36.2,34.0,30.07,WNW,284,0.0,0.0,93,0.00,,,0.01,weatherlink.com 1.10,2013-10-21 03:02:00,
2013-10-20 23:17:00,35.8,34.0,30.08,WNW,284,0.0,0.0,93,0.00,,,0.01,weatherlink.com 1.10,2013-10-21 03:17:00,
2013-10-20 23:32:00,35.7,34.0,30.08,WNW,284,0.0,0.0,93,0.00,,,0.01,weatherlink.com 1.10,2013-10-21 03:32:00,
2013-10-20 23:47:00,35.4,34.0,30.08,WNW,284,0.0,0.0,93,0.00,,,0.01,weatherlink.com 1.10,2013-10-21 03:47:00,